Hourly Data Report for September 01, 2017

TORONTO CITY
ONTARIO

43°40'00.000" N
79°24'00.000" W
112.50 m
6158355
71508
XTO

Download Data

Hourly Data (September 2017)
Hourly Data Report for September 1, 2017
TIME
LST
Temp Definition
°C
Dew Point Definition
°C
Rel Hum Definition
%
Precip. Amount Definition
mm

Wind Dir Definition
10's deg

Wind Spd Definition
km/h
Visibility Definition
km
Stn Press Definition
kPa
Hmdx Definition


Wind Chill Definition


Weather Definition


00:00 12.1 3.9 57 0.0 LegendMM LegendMM   100.92     LegendNANA
01:00 11.6 5.0 64 0.0 LegendMM LegendMM   100.94     LegendNANA
02:00 11.4 4.8 64 0.0 LegendMM LegendMM   100.96     LegendNANA
03:00 10.5 4.6 67 0.0 LegendMM LegendMM   100.98     LegendNANA
04:00 10.1 4.4 67 0.0 LegendMM LegendMM   101.02     LegendNANA
05:00 9.8 4.4 69 0.0 LegendMM LegendMM   101.04     LegendNANA
06:00 9.6 4.5 70 0.0 LegendMM LegendMM   101.06     LegendNANA
07:00 10.6 4.6 67 0.0 LegendMM LegendMM   101.12     LegendNANA
08:00 12.1 4.6 60 0.0 LegendMM LegendMM   101.14     LegendNANA
09:00 13.3 2.8 49 0.0 LegendMM LegendMM   101.19     LegendNANA
10:00 14.3 2.4 44 0.0 LegendMM LegendMM   101.16     LegendNANA
11:00 14.8 4.2 49 0.0 LegendMM LegendMM   101.12     LegendNANA
12:00 16.1 3.4 43 0.0 LegendMM LegendMM   101.05     LegendNANA
13:00 17.2 3.2 39 0.0 LegendMM LegendMM   101.00     LegendNANA
14:00 16.2 4.7 46 0.0 LegendMM LegendMM   100.99     LegendNANA
15:00 16.3 6.2 51 0.0 LegendMM LegendMM   100.94     LegendNANA
16:00 16.1 6.0 51 0.0 LegendMM LegendMM   100.88     LegendNANA
17:00 16.0 6.9 55 0.0 LegendMM LegendMM   100.86     LegendNANA
18:00 15.2 6.5 56 0.0 LegendMM LegendMM   100.84     LegendNANA
19:00 14.5 7.0 61 0.0 LegendMM LegendMM   100.82     LegendNANA
20:00 14.6 7.3 62 0.0 LegendMM LegendMM   100.88     LegendNANA
21:00 13.8 7.6 66 0.0 LegendMM LegendMM   100.89     LegendNANA
22:00 12.6 7.5 71 0.0 LegendMM LegendMM   100.92     LegendNANA
23:00 13.3 6.6 64 0.0 LegendMM LegendMM   100.90     LegendNANA

Notes on Data Quality.

Legend

  • E = Estimated
  • M = Missing
  • NA = Not Available*
  • [empty] = Indicates an unobserved value
Date modified: